Hlavní strana
METAR-TAF:

METAR-TAF

Letiště :

Winnsboro, Jižní Karolína, Spojené státy americké

zeměpisná šířka: 34-18-56N, zeměpisná délka: 081-06-32W, výška: 176 m

Aktuální stav počasí

Zpráva byla vytvořena před 21 minutami, v 22:35 UTC
Západojihozápadní vítr 7 kt
Teplota 8°C
Vlhkost vzduchu 71%
Tlak 1006 hPa
Viditelnost: 16.1 km
Jasno

METAR: KFDW 302235Z AUTO 24007KT 10SM CLR 08/03 A2970 RMK AO1

Čas: 17:56 (22:56 UTC)


TAF: chybějící

Stav a předpovědi počasí z více než 4 000 letišť (zprávy METAR a TAF).

Červené a žluté tečky na mapě představují dostupné meteorologické stanice.

Když kurzor umístíte na tečku, zobrazí se název stanice.

Pak kliknutím zobrazíte stav a předpověď počasí.

Chcete-li změnit mapu, kliknutím na zelené tlačítko se znaménkem +mapu přiblížíte, kliknutím na zelené tlačítko se znaménkem – mapu oddálíte a kliknutím na zelené šipky přejdete na sousední mapy.


METAR-TAF: